This demonstration page uses our WeatherBlox Daily Observations layout. Learn more.

Hourly Observations for February 16, 2017

Temp ( °F °C ) Dew Point ( °F °C ) Humidity (%) Winds ( mph kmh ) Pressure ( in mb ) Visibility ( mi km ) Precip ( " mm )
12:54 am 00:54 Clear 43 6.1 26 -3.3 51 51 SSW 9 15 29.84 1010 10 16.0934 0 0
1:54 am 01:54 Clear 42 5.6 26 -3.3 53 53 SSW 10 17 29.81 1009 10 16.0934 0 0
2:54 am 02:54 Clear 37 2.8 25 -3.9 62 62 S 7 11 29.79 1009 10 16.0934 0 0
3:54 am 03:54 Clear 41 5 26 -3.3 55 55 SSE 6 9 29.78 1008 10 16.0934 0 0
4:54 am 04:54 Clear 41 5 26 -3.3 55 55 Calm 29.78 1009 10 16.0934 0 0
5:54 am 05:54 Clear 40 4.4 27 -2.8 60 60 SSW 6 9 29.77 1008 10 16.0934 0 0
6:54 am 06:54 Clear 38 3.3 26 -3.3 62 62 SW 6 9 29.75 1008 10 16.0934 0 0
7:54 am 07:54 Sunny 37 2.8 27 -2.8 67 67 SSW 8 13 29.77 1008 10 16.0934 0 0
8:54 am 08:54 Sunny 40 4.4 28 -2.2 63 63 WSW 7 11 29.79 1009 10 16.0934 0 0
9:54 am 09:54 Sunny 46 7.8 29 -1.7 51 51 WSW 7 11 29.77 1008 10 16.0934 0 0
10:54 am 10:54 Sunny 50 10 30 -1.1 46 46 SW 6 9 29.75 1007 10 16.0934 0 0
11:54 am 11:54 Sunny 60 15.6 31 -0.6 33 33 SW 5 7 29.73 1007 10 16.0934 0 0
12:54 pm 12:54 Sunny 65 18.3 31 -0.6 28 28 SW 9 15 29.69 1006 10 16.0934 0 0
1:54 pm 13:54 Sunny 68 20 32 0 26 26 WSW 8 13 29.67 1005 10 16.0934 0 0
2:54 pm 14:54 Sunny 71 21.7 29 -1.7 21 21 SW 8 13 29.66 1004 10 16.0934 0 0
3:54 pm 15:54 Sunny 72 22.2 28 -2.2 19 19 SSW 8 13 29.64 1004 10 16.0934 0 0
4:54 pm 16:54 Sunny 71 21.7 28 -2.2 20 20 SW 8 13 29.64 1004 10 16.0934 0 0
5:54 pm 17:54 Sunny 64 17.8 28 -2.2 26 26 S 6 9 29.64 1004 10 16.0934 0 0
6:54 pm 18:54 Clear 53 11.7 28 -2.2 38 38 S 6 9 29.65 1004 10 16.0934 0 0
7:54 pm 19:54 Clear 48 8.9 29 -1.7 48 48 S 8 13 29.64 1004 10 16.0934 0 0
8:54 pm 20:54 Clear 50 10 28 -2.2 43 43 Calm 29.64 1004 10 16.0934 0 0
9:54 pm 21:54 Clear 47 8.3 28 -2.2 48 48 SSE 5 7 29.63 1004 10 16.0934 0 0
10:54 pm 22:54 Clear 46 7.8 27 -2.8 47 47 SE 5 7 29.62 1003 10 16.0934 0 0
11:54 pm 23:54 Clear 47 8.3 26 -3.3 44 44 Calm 29.61 1003 10 16.0934 0 0

Powered by AerisWeather